Date,TemperatureHighF,TemperatureAvgF,TemperatureLowF,DewpointHighF,DewpointAvgF,DewpointLowF,HumidityHigh,HumidityAvg,HumidityLow,PressureMaxIn,PressureMinIn,WindSpeedMaxMPH,WindSpeedAvgMPH,GustSpeedMaxMPH,PrecipitationSumIn
2014-1-1,55.7,43.0,28.0,34.5,24.1,20.0,81,49,29,30.27,29.97,5,1,9,0.00
2014-1-2,45.1,31.1,20.9,39.0,19.7,8.7,82,60,45,30.45,29.91,9,5,15,0.00
2014-1-3,35.5,25.6,16.3,15.7,9.0,5.4,65,47,29,30.53,30.21,6,2,10,0.00
2014-1-4,50.5,39.9,25.5,27.9,13.2,9.5,49,33,23,30.21,29.97,7,4,15,0.00
2014-1-5,49.8,40.6,20.2,48.3,31.4,9.7,100,70,51,30.12,29.65,10,4,19,0.00
2014-1-6,19.4,11.2,7.2,-2.2,-9.1,-12.6,35,35,32,30.56,30.45,6,2,11,0.00
2014-1-7,28.5,17.9,5.7,5.8,-2.8,-14.0,41,35,27,30.56,30.36,5,2,11,0.00
2014-1-8,43.2,33.1,23.7,27.2,13.4,5.8,72,44,29,30.47,30.36,4,2,8,0.00
2014-1-9,41.0,37.6,34.9,34.7,27.9,20.6,88,69,44,30.42,30.21,5,1,7,0.00
2014-1-10,53.1,46.2,38.8,53.1,41.0,-99.9,100,85,73,30.21,29.68,5,-8,9,0.00
2014-1-11,58.2,50.2,40.4,55.4,39.5,30.9,100,69,40,29.97,29.62,5,3,12,0.00
2014-1-12,61.5,48.8,34.5,36.5,29.5,25.2,87,52,28,30.09,29.85,5,2,12,0.00
2014-1-13,57.0,52.9,43.8,55.0,43.5,26.8,98,73,33,29.88,29.77,7,3,14,0.00
2014-1-14,65.6,46.0,34.2,34.3,29.1,17.9,82,55,22,30.09,29.83,8,2,12,0.00
2014-1-15,41.5,32.4,24.8,18.3,13.2,9.0,54,43,34,30.18,30.09,6,1,10,0.00
2014-1-16,52.0,38.4,24.4,28.2,18.9,11.8,65,46,25,30.09,29.77,7,2,15,0.00
2014-1-17,41.2,30.6,21.4,28.1,10.1,1.4,67,40,26,30.18,29.83,7,2,13,0.00
2014-1-18,47.8,28.0,19.5,17.0,11.5,7.7,69,50,26,30.15,29.77,6,2,16,0.00
2014-1-19,50.4,49.8,49.2,18.9,18.2,17.6,30,28,27,30.12,30.06,6,4,13,0.00
2014-1-21,19.2,19.1,19.1,5.7,5.6,5.5,52,52,51,30.27,30.27,4,3,6,0.00
2014-1-22,32.6,25.9,21.7,13.5,10.7,7.8,55,48,37,30.21,30.12,4,1,8,0.00
2014-1-23,29.0,20.0,11.6,14.0,-1.7,-99.9,58,35,27,30.71,30.21,10,-91,18,0.00
2014-1-24,32.8,21.6,7.3,4.1,-3.7,-15.3,49,29,26,30.62,29.88,8,3,18,0.00
2014-1-25,57.9,41.5,27.8,21.1,11.2,1.1,41,28,23,29.91,29.71,8,4,15,0.00
2014-1-26,67.6,48.5,24.3,28.5,17.2,-99.9,41,29,21,29.88,29.56,8,3,17,0.00
2014-1-27,51.6,25.4,16.2,29.2,0.6,-7.2,45,30,26,30.36,29.71,13,1,20,0.00
2014-1-28,27.3,17.3,10.4,1.4,-7.0,-13.7,30,29,26,30.42,30.27,0,0,0,0.00
2014-1-29,39.2,22.7,7.5,6.3,-4.0,-16.3,40,28,25,30.36,30.15,0,0,0,0.00
2014-1-30,60.0,29.2,21.0,58.0,1.2,-99.9,98,28,20,30.18,29.91,10,0,18,3.29
2014-1-31,46.8,41.2,32.2,33.8,20.8,-4.4,80,52,17,30.03,29.88,0,0,0,0.00
2014-2-4,33.3,32.3,29.9,33.3,30.2,22.7,100,92,71,30.12,29.74,6,1,10,0.00
2014-2-5,33.1,27.9,21.4,33.1,24.0,14.3,100,84,71,30.39,29.77,0,0,0,0.00
2014-2-6,22.1,18.7,11.1,14.9,10.1,0.8,76,66,58,30.47,30.36,0,0,0,0.00
2014-2-7,29.5,17.5,7.3,14.0,5.7,-2.8,70,56,33,30.42,30.24,0,0,0,0.00
2014-2-8,34.6,31.8,21.2,30.0,24.7,13.9,90,75,60,30.24,30.06,2,0,4,0.00
2014-2-9,36.3,32.5,25.3,32.7,26.6,16.2,99,79,57,30.21,30.03,6,2,11,0.00
2014-2-10,28.8,21.5,11.8,18.3,5.6,-4.1,72,47,28,30.33,30.18,6,4,10,0.00
2014-2-11,27.1,17.2,7.7,3.8,-1.7,-8.0,52,39,26,30.39,30.21,6,3,11,0.00
2014-2-12,45.1,29.0,15.7,14.6,8.1,2.8,68,42,20,30.21,29.91,5,2,8,0.00
2014-2-13,51.2,35.1,18.1,19.0,9.8,0.4,65,38,16,29.91,29.71,5,2,9,0.00
2014-2-14,41.5,34.2,23.7,38.3,24.1,9.3,96,66,48,29.94,29.56,10,3,15,0.00
2014-2-15,39.1,28.5,17.4,18.4,9.4,2.4,58,44,24,30.12,29.94,7,2,11,0.00
2014-2-16,50.2,35.0,24.4,26.6,18.0,15.2,78,52,26,30.15,29.91,6,2,10,0.00
2014-2-17,51.8,39.8,29.5,50.7,30.1,18.8,97,67,53,30.09,29.71,6,2,12,0.00
2014-2-18,64.3,50.8,31.6,51.9,23.1,14.3,81,39,16,30.06,29.74,5,2,9,0.00
2014-2-19,68.3,57.0,47.7,59.3,30.5,13.6,97,43,15,29.97,29.74,6,2,13,0.00
2014-2-20,70.5,60.6,42.9,62.9,45.8,21.9,92,59,35,29.77,29.44,9,4,17,0.00
2014-2-21,60.9,48.6,40.4,25.1,13.4,4.2,54,26,14,29.94,29.77,8,3,12,0.00
2014-2-22,72.3,51.7,40.3,20.5,11.0,-99.9,30,20,14,30.27,29.50,5,-3,9,0.00
2014-2-23,51.1,42.0,30.7,26.4,19.9,9.0,61,42,24,30.21,29.56,8,4,16,0.00
2014-2-24,49.7,36.2,27.0,10.3,4.5,-2.5,44,27,16,30.30,30.15,7,3,10,0.00
2014-2-25,52.9,38.2,29.5,12.8,6.7,-0.3,42,27,16,30.18,30.09,7,3,12,0.00
2014-2-26,38.2,27.7,19.4,10.8,-1.0,-7.9,44,27,19,30.65,29.97,11,4,15,0.00
2014-2-27,48.8,31.9,20.1,6.0,0.1,-6.0,38,24,16,30.06,29.91,7,2,13,0.00
2014-2-28,53.4,38.4,21.7,14.1,1.9,-7.2,32,21,15,30.09,29.91,4,2,8,0.00
2014-3-1,60.1,51.0,43.5,28.2,23.3,14.4,49,34,24,30.12,30.00,4,1,7,0.00
2014-3-2,60.0,30.8,17.6,58.0,24.5,10.9,100,78,42,30.15,29.71,10,-2,18,3.29
2014-3-3,17.5,15.5,13.9,10.8,8.1,6.2,75,69,64,29.85,29.74,0,0,0,0.00
2014-9-15,74.2,70.5,67.8,55.4,52.4,50.3,64,53,43,30.03,30.00,0,0,2,0.00
2014-9-16,77.7,69.0,57.1,48.6,43.3,36.9,73,42,25,30.12,30.00,5,1,10,0.00
2014-9-17,73.7,64.7,53.4,60.3,49.5,41.9,98,61,33,30.03,29.88,0,0,3,0.00
2014-9-18,82.4,68.4,62.1,61.2,49.8,38.1,91,55,22,29.97,29.88,3,0,6,0.00
2014-9-19,88.5,71.9,59.7,58.2,48.5,38.3,83,50,18,30.03,29.94,2,0,4,0.00
2014-9-20,94.1,76.8,60.0,68.6,56.0,43.5,98,56,19,30.30,29.88,10,0,18,3.29
2014-9-21,92.2,77.5,64.2,70.7,50.1,24.0,86,47,11,30.03,29.85,3,0,6,0.00
2014-9-22,82.4,67.2,55.8,52.4,36.8,20.1,73,38,12,30.18,30.03,4,1,9,0.00
2014-9-23,83.0,63.3,48.6,51.0,34.8,19.9,85,42,11,30.21,30.12,5,1,8,0.00
2014-9-24,87.7,68.3,50.9,54.2,43.3,35.8,86,47,18,30.21,30.12,3,0,5,0.00
2014-9-25,93.7,69.0,56.8,64.5,43.3,28.2,92,47,12,30.21,30.06,3,0,6,0.00
2014-9-26,91.9,74.1,59.2,61.5,49.0,31.0,88,50,12,30.15,30.03,5,0,8,0.00
2014-9-27,94.0,76.4,63.7,59.5,45.7,23.1,82,43,10,30.09,30.00,4,0,10,0.00
2014-9-28,69.6,69.2,68.2,60.1,59.3,58.6,75,71,68,29.97,29.94,0,0,0,0.00
2014-9-29,96.6,76.7,62.7,69.1,48.1,28.5,96,49,11,29.97,29.85,3,0,6,0.00
2014-9-30,96.5,74.8,58.3,64.9,44.4,24.7,90,45,10,29.91,29.80,3,0,6,0.00
2014-10-1,94.7,72.1,59.7,62.5,44.5,35.5,84,42,14,29.91,29.80,4,0,8,0.00
2014-10-2,93.0,77.9,69.2,72.6,57.3,51.0,88,51,25,29.88,29.59,4,1,13,0.00
2014-10-3,79.0,66.3,49.1,69.0,50.8,27.1,100,65,20,30.00,29.59,5,1,11,0.00
2014-10-4,62.6,47.6,43.5,42.1,35.0,22.1,82,64,21,29.97,29.91,5,1,10,0.00
2014-10-5,68.8,60.3,64.9,43.8,34.2,30.9,46,32,24,29.38,29.32,3,1,6,0.00
2014-10-6,80.3,67.4,59.7,57.8,45.8,31.0,84,51,21,29.44,29.32,6,2,11,0.00
2014-10-7,83.0,71.6,62.4,65.0,56.5,48.9,96,62,31,29.53,29.38,7,2,14,0.00
2014-10-8,90.3,70.9,56.1,59.9,39.3,23.1,83,41,10,29.71,29.53,3,0,6,0.00
2014-10-9,85.9,71.5,61.0,70.2,58.5,46.4,100,67,33,29.71,29.53,4,1,10,0.00
2014-10-10,69.5,65.0,58.3,69.3,64.8,57.5,100,99,96,29.94,29.50,4,1,8,0.00
2014-10-11,59.7,58.2,56.7,58.8,55.3,51.2,100,90,75,30.03,29.62,4,2,8,0.00
2014-10-12,74.3,66.8,59.2,71.8,62.9,56.6,100,88,57,29.85,29.47,3,0,6,0.00
2014-10-13,80.6,71.5,67.5,72.3,67.1,57.2,100,88,46,29.85,29.56,7,1,12,0.00
2014-10-14,68.0,62.1,58.1,68.0,58.1,46.7,100,88,54,29.68,29.50,6,2,13,0.00
2014-10-15,62.3,58.5,57.0,61.5,55.2,49.2,100,89,69,29.83,29.68,4,1,9,0.00
2014-10-16,76.0,63.0,56.3,56.5,47.8,36.0,93,64,25,29.88,29.77,4,1,7,0.00
2014-10-17,85.0,66.9,54.9,55.0,40.1,24.5,86,45,14,29.88,29.71,5,1,10,0.00
2014-10-18,75.1,60.0,50.2,45.5,36.0,27.0,74,44,21,30.12,29.88,4,1,7,0.00
2014-10-19,70.5,55.1,44.4,50.6,37.7,28.2,93,57,23,30.18,30.00,2,0,4,0.00
2014-10-20,76.7,61.3,50.0,49.6,43.7,35.5,81,58,23,30.00,29.85,4,1,10,0.00
2014-10-21,83.1,65.9,49.6,58.1,36.2,23.4,94,41,14,29.94,29.62,4,1,7,0.00
2014-10-22,70.5,56.2,46.7,43.7,32.9,23.5,78,46,18,29.85,29.74,4,2,8,0.00
2014-10-23,66.8,54.1,42.4,48.4,36.0,27.0,91,56,24,29.83,29.68,2,0,6,0.00
2014-10-24,78.1,59.2,44.8,53.1,41.9,36.5,91,59,23,29.71,29.62,3,0,5,0.00
2014-10-25,78.2,69.5,64.3,59.2,57.2,52.6,80,66,41,29.59,29.56,1,0,2,0.00
2014-10-26,90.5,73.3,60.4,65.3,55.8,42.4,96,61,25,29.59,29.47,5,0,8,0.00
2014-10-27,88.7,76.4,69.5,68.5,54.7,39.0,93,54,19,29.53,29.41,6,2,14,0.00
2014-10-28,73.4,66.9,58.7,70.0,57.8,50.2,97,74,49,29.68,29.47,4,1,10,0.00
2014-10-29,78.6,61.6,48.7,61.5,42.2,22.8,100,58,19,29.77,29.68,3,0,6,0.00
2014-10-30,72.3,56.9,42.4,51.0,37.7,27.8,91,54,21,29.77,29.59,2,0,6,0.00
2014-10-31,59.2,53.5,41.9,53.1,34.4,15.1,81,53,23,29.83,29.56,9,3,15,0.00
2014-11-1,60.1,46.0,37.2,24.5,20.2,14.9,58,37,23,30.33,29.83,6,2,10,0.00
2014-11-2,64.4,47.4,32.6,35.9,24.0,17.2,84,45,20,30.42,30.24,3,0,7,0.00
2014-11-3,75.2,58.4,44.0,31.4,26.0,20.3,52,31,20,30.30,30.12,4,1,12,0.00
2014-11-4,66.0,60.5,55.0,59.0,42.2,25.9,94,55,31,30.15,30.03,4,1,8,0.00
2014-11-5,60.8,59.9,58.3,60.0,57.2,52.4,98,91,76,30.15,30.00,4,1,9,0.00
2014-11-6,69.1,55.7,44.1,56.3,38.0,26.3,100,58,23,30.21,29.94,6,2,11,0.00
2014-11-7,64.3,48.5,38.1,36.3,27.4,20.4,79,48,23,30.18,29.91,4,1,7,0.00
2014-11-8,71.7,51.5,40.5,37.7,32.9,27.7,73,51,26,29.94,29.58,4,1,8,0.00
2014-11-9,67.9,51.3,37.6,46.3,30.7,22.1,90,51,19,29.70,29.52,4,1,9,0.00
2014-11-10,75.6,61.1,45.2,42.6,32.8,26.0,71,39,17,29.52,29.32,5,2,11,0.00
2014-11-11,68.0,55.3,40.5,57.6,40.0,24.5,81,58,33,29.79,29.40,6,3,10,0.00
2014-11-12,43.8,39.9,36.7,25.7,21.2,16.8,55,47,41,29.94,29.79,5,3,10,0.00
2014-11-13,47.3,37.0,32.3,16.7,9.1,3.8,44,32,21,30.00,29.94,5,3,9,0.00
2014-11-14,49.6,35.1,28.3,19.7,12.1,4.0,60,39,21,30.05,29.94,7,1,9,0.00
2014-11-15,49.0,38.1,27.4,21.7,13.6,8.8,60,38,23,30.17,29.79,4,1,8,0.00
2014-11-16,46.1,42.7,39.4,40.7,32.3,21.5,91,68,47,30.14,29.91,4,1,6,0.00
2014-11-17,43.7,36.0,25.9,38.9,20.4,5.0,94,55,34,30.20,29.88,5,1,10,0.00
2014-11-18,39.7,28.6,19.1,10.5,4.6,-1.0,45,34,22,30.35,30.17,6,2,12,0.00
2014-11-19,58.7,44.7,27.1,23.6,18.1,10.5,49,35,21,30.17,29.97,8,3,14,0.00
2014-11-20,55.4,39.6,28.3,22.6,15.7,10.0,60,38,22,30.26,30.11,3,0,6,0.00
2014-11-21,55.8,44.8,32.9,22.5,18.0,15.0,59,35,21,30.38,30.20,4,1,7,0.00
2014-11-22,73.3,60.3,50.2,38.5,30.1,20.9,51,32,20,30.23,29.94,5,2,11,0.00
2014-11-23,68.4,63.5,56.5,68.4,55.5,35.5,100,78,44,29.94,29.29,5,2,14,0.00
2014-11-24,68.8,56.5,44.8,67.7,37.6,23.4,98,52,26,30.00,29.32,11,4,19,0.00
2014-11-25,60.4,45.9,36.0,29.1,22.2,14.2,65,42,20,30.17,29.97,3,1,6,0.00
2014-11-26,51.8,42.1,31.2,41.6,30.6,21.3,83,66,32,30.14,29.94,4,1,7,0.00
2014-11-27,45.5,40.3,34.0,40.4,27.7,19.1,87,62,42,30.44,30.08,6,2,9,0.00
2014-11-28,55.5,44.4,32.8,31.0,24.3,17.3,82,49,24,30.41,30.00,4,1,10,0.00
2014-11-29,66.3,59.4,45.2,56.6,43.3,23.7,74,56,32,30.00,29.82,6,3,13,0.00
2014-11-30,74.7,70.4,58.9,57.3,54.0,49.5,71,57,43,30.14,29.85,7,3,13,0.00
2014-12-1,58.6,43.9,41.1,49.3,39.5,36.1,98,85,69,30.44,30.14,8,4,12,0.00
2014-12-2,46.9,44.0,41.6,43.5,39.4,34.9,97,84,72,30.32,30.17,5,2,8,0.00
2014-12-3,52.0,46.2,43.4,38.6,34.2,28.3,78,64,42,30.32,30.20,4,1,6,0.00
2014-12-4,53.5,49.9,46.4,53.5,47.4,36.3,100,92,66,30.26,30.17,4,0,6,0.00
2014-12-5,71.1,64.1,53.5,71.1,64.1,53.5,100,100,100,30.17,29.97,1,0,4,0.00
2014-12-6,69.9,53.5,46.9,69.9,45.4,33.3,100,75,50,30.50,29.97,7,4,11,0.00
2014-12-7,55.9,48.3,43.9,34.8,30.9,27.5,64,52,34,30.50,30.23,6,2,10,0.00
2014-12-8,62.1,50.1,41.0,42.4,36.7,29.4,86,63,29,30.23,30.11,5,1,8,0.00
2014-12-9,52.0,45.4,42.7,45.6,33.2,23.0,89,62,32,30.32,30.11,7,3,12,0.00
2014-12-10,51.5,44.0,39.4,36.5,28.2,21.8,75,55,32,30.32,30.20,5,2,7,0.00
2014-12-11,53.5,41.9,38.9,26.3,23.9,20.7,54,49,30,30.32,30.20,4,2,6,0.00
2014-12-12,42.9,41.8,41.0,37.1,34.4,32.7,80,75,70,30.32,30.29,1,0,2,0.00
2014-12-13,54.9,50.2,43.2,42.9,40.9,37.4,83,71,56,30.32,30.17,3,0,6,0.00
2014-12-14,61.2,56.3,52.2,56.5,49.0,42.2,91,77,68,30.17,30.02,2,1,5,0.00
2014-12-15,65.3,57.1,50.6,65.3,56.0,46.7,100,96,61,30.02,29.73,4,1,10,0.00
2014-12-16,57.2,49.6,42.1,47.5,35.4,27.2,73,58,49,30.23,29.76,5,2,11,0.00
2014-12-17,53.9,43.1,38.3,28.7,24.8,19.7,62,50,29,30.32,30.20,4,1,9,0.00
2014-12-18,43.7,41.4,38.9,38.8,34.1,25.7,87,75,55,30.26,30.17,1,0,3,0.00
2014-12-19,48.3,42.1,39.3,33.1,27.9,23.7,73,58,41,30.26,30.20,4,1,7,0.00
2014-12-20,51.2,41.8,36.2,29.5,26.0,22.9,74,54,34,30.26,30.20,3,1,5,0.00
2014-12-21,57.2,43.8,32.6,35.6,27.9,23.6,89,57,30,30.23,29.94,4,0,6,0.00
2014-12-22,62.8,55.9,44.3,62.8,51.3,30.0,100,85,56,29.94,29.61,4,1,8,0.00
2014-12-23,63.2,58.4,52.9,63.2,57.1,47.1,100,96,80,29.76,29.64,4,1,6,0.00
2014-12-24,54.4,50.7,46.4,54.2,47.1,39.6,100,88,73,29.91,29.58,4,2,9,0.00
2014-12-25,59.1,49.2,42.7,40.3,32.7,26.0,79,55,31,30.14,29.91,5,2,9,0.00
2014-12-26,66.1,53.2,43.4,41.9,36.8,33.6,82,56,31,30.20,30.08,4,1,9,0.00
2014-12-27,59.2,55.8,49.4,59.2,53.5,36.7,100,93,51,30.17,30.05,4,1,9,0.00
2014-12-28,49.2,43.9,40.2,48.9,38.1,30.6,100,81,65,30.20,30.08,5,2,8,0.00
2014-12-29,43.7,40.1,37.9,32.9,28.5,25.6,76,63,50,30.32,30.17,5,2,10,0.00
2014-12-30,49.1,38.3,30.4,28.1,20.8,11.9,72,51,26,30.59,30.32,7,4,13,0.00
2014-12-31,42.2,31.5,26.1,18.9,9.5,0.4,59,39,22,30.62,30.35,6,2,10,0.00
2015-1-1,45.1,37.9,25.7,26.2,17.9,10.5,56,44,29,30.35,30.20,4,1,8,0.00
2015-1-2,50.0,44.5,40.7,50.0,38.3,24.0,100,80,51,30.32,30.05,2,0,4,0.00